{"data":{"norad_id":54652,"epoch":"2026-09-20T04:27:25.492608Z","epoch_age_seconds":48988,"freshness":"FRESH","line1":"1 54652U 22166L   26263.18571172  .00000085  00000+0  17331-3 0  9990","line2":"2 54652  87.9288 225.0626 0001954  75.5577 284.5774 13.21827363184077","mean_motion":13.21827363,"eccentricity":0.0001954,"inclination_deg":87.9288,"raan_deg":225.0626,"arg_perigee_deg":75.5577,"mean_anomaly_deg":284.5774,"bstar":0.00017331,"rev_number":18407,"period_min":108.94009613569,"perigee_km":1176.2717542417,"apogee_km":1179.2245941678,"semimajor_km":7555.8851742048,"source":"CELESTRAK","updated_at":"2026-09-20T09:00:44.742783Z"}}